Find Kosmos-2477

NORAD ID: 37869 Int'l Des: 2011-064 Owner: KVR/IACG Country: RU Constellation: GLONASS operational
MEOCIRCULAR

当前视图

正在加载3D地球...

About Kosmos-2477

Kosmos-2477 (NORAD 37869) is a GLONASS constellation satellite launched Nov 4, 2011 by KVR/IACG of RU. It operates in MEO, CIRCULAR orbit with a mass of 1450.00 kg.

关于 Kosmos-2477

正在加载描述...

即将过境

Passes for default location (London). Set your location on the main map for personalized predictions.

高度历史

Loading altitude history...

两行轨道根数

1 37869U 11064C 26169.40005406 -.00000024 00000-0 00000-0 0 9995
2 37869 65.2838 72.9316 0025438 253.1588 257.3983 2.13101710113793
Epoch: Jun 18, 2026 • Age: 26 hours

当前状态

高度 19087.8 km
速度 3.96 km/s
星下点 -60.91°S, 129.63°W
发射日期 Nov 4, 2011
运行时间 14.6 years
类型 other

技术详情

分类 Payload
质量 1450.00 kg
干质量 1200.00 kg
总质量 1450.00 kg
长度 4.00 m
直径 1.50 m
跨度 7.80 m
形状 Cyl + Ant + 2 Pan
制造商 RESH
平台类型 Uragan
阶段状态 In Orbit
所有者/国家 KVR/IACG/RU

Most Searched